Welcome to the New NWS' Forecast!
Most changes are behind the scenes, but click here for differences you might notice.
Latest weather observations around

Talladega Municipal Airport (KASN)

Using International System of Units (Switch to English Units)
Date/ Time (CDT) Wind (kph) Vis. (km) Weather Sky Cond. Temp (°C) Rel. Humidity Wind Chill (°C) Heat Index (°C) Pressure Precip. (cm)
Air Dwpt 6 hour Altimeter (hPa) Sea level (hPa) 1 hr 3 hr 6 hr
Max Min
Oct 18 12:55 NE 11 16.09 Clear CLR 21 9     45%     1027.4        
Oct 18 12:35 NNE 8 16.09 Clear CLR 21 9     46%     1027.8        
Oct 18 12:15 ENE 8 16.09 Clear CLR 20 8     47%     1028.1        
Oct 18 11:55 ENE 9 16.09 Clear CLR 20 9     48%     1028.5        
Oct 18 11:35 NE 11 16.09 Clear CLR 19 9     50%     1028.8        
Oct 18 11:15 NNE 8 16.09 Clear CLR 19 9     51%     1028.8        
Oct 18 10:55 NE 8 16.09 Clear CLR 18 8     53%     1029.1        
Oct 18 10:35 N 11 16.09 Clear CLR 17 8     53%     1029.1        
Oct 18 10:15 NNE 9 16.09 Clear CLR 17 8     55%     1029.1        
Oct 18 09:55 NE 11 16.09 Clear CLR 16 7     56%     1029.1        
Oct 18 09:35 NE 11 16.09 Clear CLR 16 8     59%     1029.1        
Oct 18 09:15 NE 15 16.09 Clear CLR 15 7     59%     1029.1        
Oct 18 08:55 ENE 15 16.09 Clear CLR 15 8     61%     1028.8        
Oct 18 08:35 NE 9 16.09 Clear CLR 14 7     64%     1028.8        
Oct 18 08:15 NNE 9 16.09 Clear CLR 13 7     67%     1028.8        
Oct 18 07:55 NNE 8 16.09 Clear CLR 13 8     71%     1028.1        
Oct 18 07:35 NNE 8 16.09 Clear CLR 12 8     74%     1028.1        
Oct 18 07:15 N 5 16.09 Clear CLR 12 8     79%     1028.1        
Oct 18 06:55 N 5 16.09 Clear CLR 11 9     83%     1027.8        
Oct 18 06:35 Calm 16.09 Clear CLR 12 9     80%     1027.4        
Oct 18 06:15 Calm 16.09 Clear CLR 12 9     79%     1027.8        
Oct 18 05:55 N 8 16.09 Clear CLR 13 9     78%     1027.4        
Oct 18 05:35 N 8 16.09 Clear CLR 13 9     77%     1027.4        
Oct 18 05:15 N 8 16.09 Clear CLR 13 9     76%     1027.4        
Oct 18 04:55 N 8 16.09 Clear CLR 14 9     74%     1027.4        
Oct 18 04:35 N 8 16.09 Clear CLR 14 9     74%     1027.1        
Oct 18 04:15 NNE 8 16.09 Clear CLR 14 9     73%     1027.1        
Oct 18 03:55 NNE 8 16.09 Clear CLR 14 9     72%     1027.1        
Oct 18 03:35 NNE 9 16.09 Clear CLR 14 9     71%     1027.1        
Oct 18 03:15 N 9 16.09 Clear CLR 15 9     69%     1027.1        
Oct 18 02:55 NNE 11 16.09 Clear CLR 15 9     67%     1027.4        
Oct 18 02:35 N 11 16.09 Clear CLR 14 9     68%     1027.1        
Oct 18 02:15 NNE 5 16.09 Clear CLR 14 9     70%     1027.1        
Oct 18 01:55 Calm 16.09 Clear CLR 14 9     69%     1027.1        
Oct 18 01:35 Calm 16.09 Clear CLR 15 9     68%     1027.1        
Oct 18 01:15 NE 8 16.09 Clear CLR 15 9     69%     1027.1        
Oct 18 00:55 Calm 16.09 Clear CLR 14 10     74%     1027.1        
Oct 18 00:35 Calm 16.09 Clear CLR 14 10     75%     1026.8        
Oct 18 00:15 Calm 16.09 Clear CLR 15 9     69%     1027.1        
Oct 17 23:55 Calm 16.09 Clear CLR 16 9     65%     1026.8        
Oct 17 23:35 NNE 5 16.09 Clear CLR 16 9     65%     1026.8        
Oct 17 23:15 NNE 8 16.09 Clear CLR 15 10     70%     1026.8        
Oct 17 22:55 NNE 5 16.09 Clear CLR 16 10     67%     1026.8        
Oct 17 22:35 N 8 16.09 Clear CLR 16 10     67%     1026.8        
Oct 17 22:15 N 8 16.09 Partly Cloudy SCT100 17 10     67%     1026.8        
Oct 17 21:55 N 5 16.09 Mostly Cloudy BKN110 16 11     72%     1026.4        
Oct 17 21:35 Calm 16.09 Clear   16 13     78%     1026.4        
Oct 17 21:15 Calm 16.09 Clear   17 12     74%     1026.4        
Oct 17 20:55 Calm 16.09 Clear   17 12     72%     1026.4        
Oct 17 20:35 Calm 16.09 Mostly Cloudy BKN110 17 12     71%     1026.4        
Oct 17 20:15 Calm 16.09 Clear CLR 17 12     72%     1026.1        
Oct 17 19:55 Calm 16.09 Partly Cloudy SCT110 18 13     72%     1026.1        
Oct 17 19:35 Calm 16.09 Partly Cloudy SCT110 18 13     75%     1025.7        
Oct 17 19:15 Calm 16.09 Mostly Cloudy BKN100 18 13     71%     1025.7        
Oct 17 18:55 Calm 16.09 Cloudy OVC100 19 13     70%     1025.7        
Oct 17 18:35 Calm 16.09 Cloudy OVC100 19 12     66%     1025.4        
Oct 17 18:15 NNW 5 16.09 Mostly Cloudy BKN100 19 13     69%     1025.4        
Oct 17 17:55 N 5 16.09 Mostly Cloudy BKN090 19 13     66%     1025.1        
Oct 17 17:35 N 5 16.09 Cloudy OVC090 20 13     64%     1025.1        
Oct 17 17:15 N 5 16.09 Mostly Cloudy BKN090 BKN120 20 13     63%     1024.7        
Oct 17 16:55 NNW 5 16.09 Mostly Cloudy BKN100 20 13     65%     1025.1        
Oct 17 16:35 NNW 9 16.09 Cloudy OVC100 20 13     66%     1024.7        
Oct 17 16:15 NNW 11 16.09 Cloudy OVC090 20 14     68%     1024.7        
Oct 17 15:55 NW 9 16.09 Mostly Cloudy BKN100 20 14     69%     1024.7        
Oct 17 15:35 N 9 16.09 Clear CLR 21 15     69%     1024.7        
Oct 17 15:15 N 9 16.09 Partly Cloudy SCT090 21 15     68%     1024.7        
Oct 17 14:55 N 11 16.09 Cloudy OVC090 21 14     66%     1024.4        
Oct 17 14:35 N 11 16.09 Mostly Cloudy BKN090 BKN110 21 14     64%   21 1024.1        
Oct 17 14:15 NNE 11 16.09 Cloudy BKN080 OVC110 21 14     64%   21 1024.4        
Oct 17 13:55 N 11 16.09 Cloudy OVC080 21 15     66%   21 1024.4        
Oct 17 13:35 N 11 16.09 Cloudy OVC080 21 15     66%     1024.4        
Oct 17 13:15 N 8 16.09 Mostly Cloudy BKN080 21 15     69%     1024.7        
Oct 17 12:55 NE 5 16.09 Mostly Cloudy BKN080 21 16     71%     1024.7       0
Oct 17 12:35 N 5 16.09 Mostly Cloudy BKN080 20 16     75%     1025.1        
Oct 17 12:15 NNE 13 16.09 Cloudy SCT015 BKN080 OVC110 20 16     80%     1025.7        
Oct 17 11:55 N 11 16.09 Cloudy SCT015 OVC080 19 16     83%     1025.7        
Oct 17 11:35 N 11 16.09 Cloudy BKN015 OVC080 19 16     84%     1025.7        
Oct 17 11:15 NNE 11 16.09 Cloudy BKN013 BKN050 OVC070 19 17     87%     1025.7        
Oct 17 10:55 NNE 11 16.09 Cloudy BKN011 BKN050 OVC070 18 17     93%     1025.7        
Oct 17 10:35 N 11 16.09 Cloudy OVC008 18 17     95%     1025.7        
Oct 17 10:15 NNE 11 16.09 Cloudy OVC008 18 17     96%     1025.7        
Oct 17 09:55 N 8 16.09 Cloudy BKN010 BKN035 OVC080 18 17     96%     1025.4     0  
Oct 17 09:35 N 9 16.09 Cloudy BKN010 BKN035 OVC080 18 17     96%     1025.4        
Oct 17 09:15 N 5 16.09 Cloudy OVC008 17 17     98%     1025.1        
Oct 17 08:55 N 8 16.09 Light Drizzle BKN008 OVC080 17 17     97%     1025.1        
Oct 17 08:35 NE 5 16.09 Cloudy SCT008 SCT050 OVC080 17 17     97%     1024.7        
Oct 17 08:15 Calm 16.09 Mostly Cloudy SCT050 BKN090 BKN100 17 17     99%     1024.4        
Oct 17 07:55 Calm 16.09 Rain SCT021 SCT034 BKN090 17 16     98%     1024.4   0    
Oct 17 07:35 Calm 16.09 Rain SCT009 SCT032 SCT041 16 16     98%     1024.4   0    
Oct 17 07:15 Calm 16.09 Light Drizzle BKN011 BKN016 BKN085 16 16     98%     1024.4        
Oct 17 06:55 N 8 16.09 Light Rain OVC011 17 16     97%     1024.4        
Oct 17 06:35 N 9 16.09 Drizzle OVC009 17 16     97%     1024.1        
Oct 17 06:15 N 11 16.09 Rain BKN009 OVC014 17 16     96%     1023.7        
Oct 17 05:55 N 9 16.09 Mostly Cloudy SCT009 BKN015 BKN095 18 17     95%     1023.7        
Oct 17 05:35 N 5 16.09 Mostly Cloudy BKN007 BKN095 BKN120 18 17     95%     1023.4        
Oct 17 05:15 NNE 8 16.09 Cloudy OVC007 18 17     96%     1022.7        
Oct 17 04:55 NNE 5 16.09 Cloudy OVC007 18 17     97%     1022.7        
Oct 17 04:35 NNE 8 16.09 Cloudy BKN007 OVC100 18 17     97%     1022.7        
Oct 17 04:15 N 9 16.09 Cloudy SCT007 OVC100 18 17     96%     1022.7        
Oct 17 03:55 N 8 16.09 Cloudy SCT007 OVC110 18 17     96%     1022.4        
Oct 17 03:35 N 8 16.09 Cloudy BKN007 BKN036 OVC110 18 17     96%     1022.4        
Oct 17 03:15 N 5 16.09 Cloudy OVC007 18 17     96%     1022.4        
Oct 17 02:55 N 11 16.09 Cloudy OVC007 18 18     96%     1022.4        
Oct 17 02:35 N 9 16.09 Cloudy OVC007 18 18     96%     1022.4        
Oct 17 02:15 NNE 5 16.09 Cloudy OVC007 18 18     98%     1022        
Oct 17 01:55 N 5 16.09 Cloudy BKN007 OVC065 18 18     98%     1021.7        
Oct 17 01:35 N 5 16.09 Cloudy SCT005 BKN065 OVC085 18 18     99%     1021.7        
Oct 17 01:15 NNE 8 16.09 Mostly Cloudy SCT060 SCT065 BKN075 18 18     99%     1021.3        
Oct 17 00:55 N 5 16.09 Mostly Cloudy SCT060 BKN080 BKN110 18 18     99%     1021.3        
Oct 17 00:35 N 8 16.09 Mostly Cloudy BKN075 18 18     99%     1021.3        
Oct 17 00:15 N 5 16.09 Clear CLR 18 18     99%     1021.3        
Oct 16 23:55 NNW 8 16.09 Partly Cloudy SCT100 18 18     98%     1021.3        
Notice The following observation data may not be complete
Oct 16 23:35   16.09 Mostly Cloudy BKN100          %              
Oct 16 22:55 Calm 16.09 Mostly Cloudy BKN110 19 18     97%     1021.7        
Oct 16 22:35 Calm 16.09 Partly Cloudy SCT110 18 18     98%     1021.7        
Oct 16 22:15 Calm 16.09 Clear CLR 19 18     97%     1021.7        
Oct 16 21:55 Calm 16.09 Clear CLR 19 18     97%     1022        
Oct 16 21:35 N 5 16.09 Partly Cloudy SCT080 19 18     97%     1022        
Oct 16 21:15 NNE 5 16.09 Partly Cloudy SCT035 SCT080 19 18     97%     1021.7        
Oct 16 20:55 NE 8 16.09 Cloudy OVC035 19 18     96%     1022        
Oct 16 20:35 Calm 16.09 Cloudy OVC033 19 18     96%     1022        
Oct 16 20:15 Calm 16.09 Cloudy OVC029 19 18     96%     1022        
Oct 16 19:55 NNE 8 16.09 Light Drizzle SCT007 SCT012 OVC025 19 18     96%     1022        
Oct 16 19:35 NW 11 16.09 Clear   19 18     92%     1022.4        
Oct 16 19:15 N 9 16.09 Clear   19 18     94%     1021.7        
Oct 16 18:55 NNE 13 16.09 Clear   19 18     94%     1021.3        
Oct 16 18:35 N 11 16.09 Cloudy BKN009 OVC014 20 18     92%     1021.3        
Oct 16 18:15 NNE 8 16.09 Cloudy BKN009 OVC016 20 18     92%     1021        
Oct 16 17:55 NNE 9 16.09 Cloudy BKN009 OVC016 20 18     92%     1020.7        
Oct 16 17:35 NNE 13 16.09 Cloudy SCT009 OVC018 20 18     91%     1020.7        
Oct 16 17:15 NNE 11 16.09 Cloudy OVC018 20 18     89%     1020.3        
Oct 16 16:55 N 17 16.09 Cloudy OVC018 21 19     87%     1020.3        
Oct 16 16:35 N 13 16.09 Cloudy OVC018 22 19     84%   22 1020        
Oct 16 16:15 NNW 9 16.09 Cloudy OVC022 22 19     82%   23 1020        
Oct 16 15:55 N 5 16.09 Mostly Cloudy BKN022 BKN032 23 19     81%   23 1019.7        
Oct 16 15:35 Calm 16.09 Mostly Cloudy SCT015 SCT022 BKN032 23 19     81%   23 1020        
Oct 16 15:15 Calm 16.09 Cloudy BKN015 OVC022 23 19     82%   23 1019.7        
Oct 16 14:55 ENE 5 16.09 Cloudy OVC015 23 19     82%   23 1020        
Oct 16 14:35 Calm 16.09 Cloudy BKN015 OVC021 22 19     82%   23 1020        
Oct 16 14:15 NE 8 16.09 Cloudy OVC021 22 19     81%   23 1019.7        
Oct 16 13:55 N 5 16.09 Cloudy SCT014 OVC021 22 19     82%   22 1020        
Oct 16 13:35 ENE 8 16.09 Cloudy BKN014 OVC021 22 19     82%   22 1020.3        
Oct 16 13:20 N 5 16.09 Cloudy OVC014 22 19     82%   22 1020.7        
Oct 16 12:55 NNW 8 16.09 Cloudy OVC014 22 19     83%   22 1021        
Oct 16 12:35 N 9 16.09 Cloudy OVC014 22 19     83%   22 1021.3        
Oct 16 12:15 NNE 5 16.09 Cloudy OVC012 22 19     84%   22 1021.3        
Oct 16 11:55 NE 9 16.09 Cloudy OVC012 22 19     84%   22 1021.7        
Oct 16 11:35 Calm 16.09 Cloudy OVC012 21 19     88%     1021.7        
Oct 16 11:20 Calm 16.09 Cloudy OVC012 21 18     87%     1022        
Oct 16 10:55 Calm 16.09 Cloudy OVC010 20 18     87%     1022.4        
Oct 16 10:35 Calm 16.09 Cloudy OVC010 20 18     88%     1022.4        
Oct 16 10:15 NNE 9 16.09 Cloudy OVC010 20 18     89%     1022.4        
Oct 16 09:55 NE 9 16.09 Cloudy OVC010 19 18     91%     1022.4        
Oct 16 09:35 NE 9 16.09 Cloudy BKN007 OVC012 19 18     92%     1022.4        
Oct 16 09:15 NE 11 16.09 Cloudy OVC005 19 18     94%     1022.4        
Oct 16 08:55 NNE 13 16.09 Cloudy OVC005 18 18     96%     1022        
Oct 16 08:35 NNE 13 11.27 Cloudy OVC005 18 17     98%     1022        
Oct 16 08:15 N 9 11.27 Cloudy OVC005 18 17     98%     1022        
Oct 16 07:55 N 5 11.27 Light Drizzle OVC005 17 17     99%     1022        
Oct 16 07:35 N 8 11.27 Cloudy OVC005 17 17     99%     1022        
Oct 16 07:15 N 8 11.27 Cloudy OVC007 18 17     97%     1022        
Oct 16 07:00 NNE 13 16.09 Cloudy OVC007 18 17     97%     1021.7        
Oct 16 06:35 N 8 16.09 Cloudy OVC007 18 17     96%     1021.7        
Oct 16 06:15 N 11 16.09 Cloudy OVC007 18 17     94%     1021.7        
Oct 16 05:55 N 9 16.09 Cloudy OVC007 18 18     96%     1021.3        
Oct 16 05:35 N 15 16.09 Cloudy OVC007 18 18     95%     1021.3        
Oct 16 05:15 N 11 16.09 Cloudy OVC005 19 18     96%     1021        
Oct 16 04:55 N 9 16.09 Cloudy OVC005 20 19     97%     1020.7        
Oct 16 04:35 NNE 13 16.09 Cloudy OVC005 20 20     98%     1020.3        
Oct 16 04:15 NNE 8 11.27 Cloudy OVC005 21 20     99%     1020        
Oct 16 03:55 N 5 16.09 Cloudy OVC005 21 20     99%     1020        
Oct 16 03:35 NNW 5 16.09 Cloudy OVC005 21 20     99%     1020        
Oct 16 03:15 N 5 16.09 Mostly Cloudy BKN005 BKN120 21 20     98%     1020        
Oct 16 02:55 Calm 16.09 Light Rain CLR 20 20     99%     1020.3        
Oct 16 02:35 Calm 16.09 Partly Cloudy SCT095 21 20     96%     1020.3        
Oct 16 02:15 Calm 16.09 Partly Cloudy SCT095 21 20     98%     1020.3        
Oct 16 01:55 Calm 16.09 Clear CLR 20 20     98%     1020        
Oct 16 01:35 NNW 8 16.09 Clear CLR 20 20     99%     1020        
Oct 16 01:20 Calm 16.09 Partly Cloudy SCT090 SCT110 20 20     99%     1020.3        
Oct 16 00:55 S 5 16.09 Clear CLR 20 20     100%     1020        
Oct 16 00:35 Calm 16.09 Clear CLR 20 20     99%     1019.7        
Oct 16 00:15 Calm 16.09 Clear CLR 20 20     99%     1019.7        
Oct 15 23:55 Calm 16.09 Clear CLR 20 20     98%     1020.3        
Oct 15 23:35 Calm 16.09 Clear CLR 20 20     99%     1020        
Oct 15 23:15 Calm 16.09 Clear CLR 20 20     97%     1020        
Oct 15 22:55 Calm 16.09 Clear CLR 21 20     96%     1020.7        
Oct 15 22:35 Calm 16.09 Clear CLR 20 20     98%     1020.7        
Oct 15 22:15 Calm 16.09 Clear CLR 20 20     98%     1020.7        
Oct 15 21:55 Calm 16.09 Clear CLR 20 20     98%     1021        
Oct 15 21:35 Calm 16.09 Clear CLR 21 20     97%     1021        
Oct 15 21:15 Calm 16.09 Clear CLR 21 20     92%   22 1020.7        
Oct 15 20:55 Calm 16.09 Clear CLR 22 20     91%   23 1020.3        
Oct 15 20:35 Calm 16.09 Partly Cloudy SCT045 22 20     89%   23 1020.3        
Oct 15 20:15 Calm 16.09 Partly Cloudy SCT036 SCT045 22 20     92%   22 1020.3        
Oct 15 19:55 ENE 5 16.09 Partly Cloudy SCT036 SCT043 21 20     92%   22 1020.3        
Oct 15 19:35 Calm 16.09 Partly Cloudy SCT042 22 20     89%   23 1020        
Oct 15 19:15 Calm 16.09 Clear CLR 24 20     82%   24 1020.3        
Oct 15 18:55 Calm 16.09 Clear CLR 24 20     82%   24 1019.7        
Oct 15 18:35 Calm 16.09 Clear CLR 25 20     76%   25 1019.3        
Oct 15 18:15 Calm 16.09 Clear CLR 24 21     83%   24 1019.3        
Oct 15 17:55 Calm 16.09 Clear CLR 26 20     70%   28 1019        
Oct 15 17:35 Calm 16.09 Clear CLR 27 19     61%   29 1019.3        
Oct 15 17:15 NW 5 16.09 Partly Cloudy SCT080 28 19     58%   29 1019        
Oct 15 16:55 WNW 8 16.09 Partly Cloudy SCT080 28 19     60%   29 1019.7        
Oct 15 16:35 WNW 5 16.09 Clear CLR 29 19     57%   30 1019.3        
Oct 15 16:15 WNW 5 16.09 Partly Cloudy SCT065 SCT070 28 20     60%   29 1019        
Oct 15 15:55 WNW 11 16.09 Mostly Cloudy SCT042 BKN060 BKN070 28 20     63%   29 1019.3        
Oct 15 15:35 W 9 16.09 Cloudy SCT040 BKN060 OVC070 28 20     62%   29 1019.3        
Oct 15 15:15 Calm 16.09 Partly Cloudy SCT036 SCT044 SCT055 27 20     63%   29 1019.3        
Oct 15 14:55 S 5 16.09 Partly Cloudy SCT036 SCT060 28 20     62%   30 1019        
Oct 15 14:35 SSW 5 16.09 Partly Cloudy SCT060 27 20     66%   29 1019.3        
Oct 15 14:15 SW 8 16.09 Partly Cloudy SCT060 28 20     63%   29 1019.3        
Oct 15 13:55 W 11 16.09 Mostly Cloudy SCT042 BKN050 27 20     65%   29 1019.3        
Oct 15 13:35 WSW 5 16.09 Partly Cloudy SCT045 SCT060 28 20     64%   30 1019.3        
Oct 15 13:15 SW 9 16.09 Partly Cloudy SCT031 SCT041 SCT047 27 20     65%   29 1019.7        
Oct 15 12:55 SSW 8 16.09 Partly Cloudy SCT031 SCT060 27 20     65%   29 1019.7        
Oct 15 12:35 Calm 16.09 Partly Cloudy SCT049 27 20     66%   29 1019.7        
Oct 15 12:15 WNW 5 16.09 Mostly Cloudy BKN047 27 21     69%   28 1020        
Oct 15 11:55 SW 9 16.09 Mostly Cloudy SCT033 BKN047 26 21     73%   26 1020.3        
Oct 15 11:35 WSW 8 16.09 Mostly Cloudy SCT025 BKN033 BKN040 26 20     73%   26 1020.7        
Oct 15 11:15 SW 9 16.09 Mostly Cloudy BKN025 BKN033 25 20     73%   26 1021        
Oct 15 10:55 Calm 16.09 Mostly Cloudy BKN023 BKN031 BKN038 25 20     72%   26 1021        
Oct 15 10:35 SSW 5 16.09 Cloudy OVC021 25 20     72%   26 1021        
Oct 15 10:15 S 5 16.09 Mostly Cloudy BKN021 BKN026 BKN046 24 19     73%   24 1021        
Oct 15 09:55 S 9 16.09 Mostly Cloudy BKN023 BKN029 BKN035 24 19     72%   24 1021        
Oct 15 09:35 SSE 8 16.09 Mostly Cloudy SCT025 BKN033 BKN042 23 18     75%   23 1021        
Oct 15 09:15 SSE 11 16.09 Partly Cloudy SCT033 23 18     78%   23 1021        
Oct 15 08:55 SSE 9 16.09 Clear CLR 22 18     79%   22 1020.7        
Oct 15 08:35 SSE 5 16.09 Clear CLR 21 17     80%     1020.7        
Oct 15 08:15 Calm 16.09 Clear CLR 20 17     82%     1020.7        
Oct 15 07:55 Calm 16.09 Clear CLR 18 17     93%     1020.3        
Oct 15 07:35 Calm 16.09 Clear CLR 17 16     91%     1020.3        
Oct 15 07:15 Calm 16.09 Partly Cloudy SCT044 16 15     95%     1020        
Oct 15 06:55 Calm 16.09 Clear CLR 16 15     94%     1020        
Oct 15 06:35 SE 5 16.09 Clear CLR 17 15     86%     1019.7        
Oct 15 06:15 Calm 16.09 Clear CLR 15 15     97%     1019.7        
Oct 15 05:55 Calm 16.09 Clear CLR 16 15     94%     1019.7        
Oct 15 05:35 Calm 16.09 Clear CLR 16 15     97%     1019.3        
Oct 15 05:15 ENE 5 16.09 Clear CLR 16 15     96%     1019        
Oct 15 04:55 Calm 16.09 Clear CLR 16 15     93%     1019        
Oct 15 04:35 Calm 16.09 Clear CLR 16 15     98%     1019        
Oct 15 04:15 Calm 16.09 Clear CLR 16 15     96%     1019        
Oct 15 03:55 Calm 16.09 Clear CLR 17 16     93%     1019        
Oct 15 03:35 Calm 16.09 Clear CLR 16 15     96%     1018.6        
Oct 15 03:15 Calm 16.09 Clear CLR 17 16     94%     1018.6        
Oct 15 02:55 Calm 16.09 Clear CLR 17 16     91%     1019        
Oct 15 02:35 Calm 16.09 Clear CLR 17 16     91%     1019        
Oct 15 02:15 Calm 16.09 Clear CLR 18 16     89%     1019        
Oct 15 01:55 Calm 16.09 Clear CLR 17 16     93%     1019        
Oct 15 01:35 Calm 16.09 Clear CLR 18 16     88%     1019        
Oct 15 01:15 ENE 5 16.09 Partly Cloudy SCT120 18 16     90%     1019        
Oct 15 00:55 ENE 8 16.09 Mostly Cloudy BKN120 18 16     90%     1019        
Oct 15 00:35 Calm 16.09 Clear   18 16     91%     1019        
Oct 15 00:15 Calm 16.09 Partly Cloudy SCT110 18 16     88%     1019        
Oct 14 23:55 Calm 16.09 Clear   17 16     91%     1019        
Oct 14 23:35 Calm 16.09 Clear CLR 18 16     88%     1019        
Oct 14 23:15 Calm 16.09 Partly Cloudy SCT120 18 16     88%     1019        
Oct 14 22:55 Calm 16.09 Partly Cloudy SCT120 19 16     84%     1019        
Oct 14 22:35 Calm 16.09 Clear CLR 18 16     88%     1019.3        
Oct 14 22:15 Calm 16.09 Clear CLR 19 17     84%     1019.3        
Oct 14 21:55 Calm 16.09 Partly Cloudy SCT120 19 17     85%     1019        
Oct 14 21:35 Calm 16.09 Partly Cloudy SCT120 20 16     79%     1019        
Oct 14 21:15 Calm 16.09 Partly Cloudy SCT120 19 16     82%     1019        
Oct 14 20:55 Calm 16.09 Clear CLR 20 16     79%     1018.6        
Oct 14 20:35 Calm 16.09 Clear CLR 21 16     75%     1018.3        
Oct 14 20:15 Calm 16.09 Clear CLR 21 16     75%     1018.3        
Oct 14 19:55 Calm 16.09 Clear CLR 21 17     78%     1018        
Oct 14 19:35 Calm 16.09 Clear CLR 21 16     73%   21 1018        
Oct 14 19:15 Calm 16.09 Clear CLR 24 15     60%   23 1017.6        
Oct 14 18:55 SE 5 16.09 Partly Cloudy SCT120 24 15     57%   24 1017.6        
Oct 14 18:35 SSE 8 16.09 Partly Cloudy SCT120 25 15     55%   25 1017.3        
Oct 14 18:15 SSE 8 16.09 Partly Cloudy SCT120 25 15     54%   25 1016.9        
Oct 14 17:55 SSE 9 16.09 Clear CLR 26 15     51%   26 1016.9        
Oct 14 17:35 SE 11 16.09 Clear CLR 27 15     48%   27 1016.9        
Oct 14 17:15 SSE 11 16.09 Clear CLR 28 15     46%   28 1016.6        
Oct 14 16:55 SSE 9 16.09 Clear CLR 28 15     44%   28 1016.6        
Oct 14 16:35 SSW 11 16.09 Clear CLR 29 13     39%   28 1016.6        
Oct 14 16:15 S 13 16.09 Clear CLR 29 13     38%   28 1016.9        
Oct 14 15:55 SSW 11 16.09 Clear CLR 29 14     38%   29 1016.9        
Oct 14 15:35 S 15 16.09 Clear CLR 29 13     37%   28 1016.9        
Oct 14 15:15 S 13 16.09 Clear CLR 29 13     38%   29 1016.9        
Oct 14 14:55 SSW 17 16.09 Clear CLR 29 14     40%   29 1016.6        
Oct 14 14:35 SW 17 16.09 Clear CLR 29 15     41%   29 1016.6        
Oct 14 14:15 S 15 16.09 Clear CLR 29 14     40%   28 1016.6        
Oct 14 13:55 SSW 15 16.09 Clear CLR 29 14     42%   28 1016.6        
Oct 14 13:35 S 18 16.09 Clear CLR 29 14     42%   28 1016.9        
Oct 14 13:20 SSW 18 16.09 Clear CLR 28 15     43%   28 1016.9        
Oct 14 12:55 SW 15 16.09 Clear CLR 28 14     42%   28 1017.3        
Oct 14 12:40 S 13 16.09 Clear CLR 28 15     45%   28 1018        
Oct 14 12:10 SSW 18 16.09 Clear CLR 27 15     47%   27 1018.3        
Oct 14 11:55 S 11 16.09 Clear CLR 26 16     51%   26 1018.3        
Oct 14 11:35 S 15 16.09 Clear CLR 25 15     54%   25 1019        
Oct 14 11:15 SSE 11 16.09 Partly Cloudy SCT120 25 16     56%   25 1019        
Oct 14 10:55 S 9 16.09 Partly Cloudy SCT120 24 15     60%   23 1019        
Oct 14 10:40 S 9 16.09 Partly Cloudy SCT110 23 15     60%   23 1019        
Oct 14 10:15 Calm 16.09 Mostly Cloudy BKN100 23 15     63%   23 1019.3        
Oct 14 09:55 SSE 8 16.09 Mostly Cloudy BKN100 22 15     65%   22 1019        
Oct 14 09:35 Calm 16.09 Mostly Cloudy BKN100 BKN120 20 15     73%     1019        
Oct 14 09:15 E 5 16.09 Partly Cloudy SCT120 19 15     76%     1018.6        
Oct 14 08:55 Calm 16.09 Clear CLR 19 15     76%     1018.6        
Oct 14 08:35 E 5 16.09 Partly Cloudy SCT120 18 15     82%     1018.6        
Oct 14 08:15 Calm 16.09 Mostly Cloudy BKN110 17 14     84%     1018        
Oct 14 07:55 ESE 5 16.09 Mostly Cloudy BKN110 16 14     87%     1018        
Oct 14 07:35 Calm 16.09 Mostly Cloudy BKN110 15 14     96%     1018        
Oct 14 07:15 Calm 16.09 Partly Cloudy SCT100 15 14     96%     1018        
Oct 14 06:55 Calm 16.09 Partly Cloudy SCT100 16 14     86%     1018        
Oct 14 06:35 Calm 16.09 Clear CLR 16 14     88%     1017.3        
Oct 14 06:15 Calm 16.09 Clear CLR 16 14     85%     1017.3        
Oct 14 05:55 Calm 16.09 Clear CLR 16 14     85%     1016.9        
Oct 14 05:35 Calm 16.09 Clear CLR 16 14     85%     1016.9        
Oct 14 05:15 ESE 5 16.09 Clear CLR 16 14     85%     1016.6        
Oct 14 04:55 Calm 16.09 Clear CLR 16 14     87%     1016.6        
Oct 14 04:35 Calm 16.09 Partly Cloudy SCT120 16 14     85%     1016.9        
Oct 14 04:15 Calm 16.09 Partly Cloudy SCT120 16 13     82%     1016.6        
Oct 14 03:55 ESE 5 16.09 Partly Cloudy SCT110 16 13     83%     1016.3        
Oct 14 03:35 E 5 16.09 Partly Cloudy SCT110 16 13     83%     1016.3        
Oct 14 03:15 Calm 16.09 Mostly Cloudy BKN110 17 13     79%     1016.6        
Oct 14 02:55 E 9 16.09 Mostly Cloudy BKN110 16 13     85%     1016.3        
Oct 14 02:35 Calm 16.09 Clear CLR 16 13     81%     1016.6        
Oct 14 02:15 ESE 5 16.09 Clear CLR 16 13     84%     1015.9        
Oct 14 01:55 Calm 16.09 Clear CLR 16 13     83%     1016.3        
Oct 14 01:35 Calm 16.09 Clear CLR 17 14     82%     1016.3        
Oct 14 01:15 Calm 16.09 Clear CLR 16 14     85%     1016.3        
Oct 14 00:55 Calm 16.09 Clear CLR 16 14     88%     1016.6        
Oct 14 00:35 Calm 16.09 Clear CLR 17 14     82%     1016.6        
Oct 14 00:15 Calm 16.09 Clear CLR 17 14     81%     1016.6        
Oct 13 23:55 Calm 16.09 Clear CLR 17 14     84%     1016.3        
Oct 13 23:35 Calm 16.09 Clear CLR 17 13     80%     1016.3        
Oct 13 23:15 E 11 16.09 Clear CLR 17 14     83%     1016.3        
Oct 13 22:55 E 5 16.09 Clear CLR 17 14     82%     1016.6        
Oct 13 22:35 Calm 16.09 Clear CLR 17 14     79%     1016.9        
Oct 13 22:15 Calm 16.09 Clear CLR 17 14     81%     1016.3        
Oct 13 21:55 ESE 5 16.09 Clear CLR 17 14     81%     1016.3        
Oct 13 21:35 E 8 16.09 Clear CLR 17 14     85%     1016.3        
Oct 13 21:15 Calm 16.09 Clear CLR 17 14     83%     1016.6        
Oct 13 20:55 Calm 16.09 Clear CLR 16 14     91%     1016.3        
Oct 13 20:35 Calm 16.09 Clear CLR 17 14     85%     1015.9        
Oct 13 20:15 Calm 16.09 Clear CLR 16 14     90%     1015.9        
Oct 13 19:55 Calm 16.09 Clear CLR 17 14     86%     1015.9        
Oct 13 19:35 Calm 16.09 Clear CLR 17 14     83%     1015.6        
Oct 13 19:20 ENE 5 16.09 Clear CLR 17 14     83%     1015.2        
Oct 13 18:55 Calm 16.09 Clear CLR 18 14     78%     1015.2        
Oct 13 18:35 Calm 16.09 Clear CLR 19 14     75%     1014.9        
Oct 13 18:15 Calm 16.09 Clear CLR 20 14     69%     1014.6        
Oct 13 17:55 Calm 16.09 Clear CLR 22 13     60%   21 1014.6        
Oct 13 17:35 Calm 16.09 Clear CLR 22 12     54%   22 1014.6        
Oct 13 17:15 N 8 16.09 Clear CLR 23 12     52%   22 1014.6        
Oct 13 16:55 NNE 5 16.09 Clear CLR 23 12     52%   22 1014.6        
Oct 13 16:35 N 5 16.09 Clear CLR 23 13     52%   22 1014.9        
Oct 13 16:15 N 5 16.09 Clear CLR 23 12     51%   23 1014.9        
Oct 13 15:55 Calm 16.09 Clear CLR 23 12     51%   23 1014.9        
Oct 13 15:35 NNW 8 16.09 Partly Cloudy SCT049 23 12     52%   22 1014.9        
Oct 13 15:15 NNW 8 16.09 Partly Cloudy SCT049 23 13     53%   22 1014.9        
Oct 13 13:35 W 5 16.09 Clear CLR 22 12     52%   22 1015.2        
Oct 13 12:15 Calm 16.09 Clear CLR 21 11     55%     1016.6        
May 15 12:55 ENE 11 16.09 Mostly Cloudy BKN055 BKN070 28 20     60%   30 1015.6        
May 15 11:15 E 11 16.09 Clear CLR 28 20     62%   29 1016.3        
May 14 20:35 Calm 16.09 Clear CLR 26 21     70%   28 1014.6        
May 14 18:35 N 8 16.09 Clear CLR 31 19     47%   32 1014.2        
May 14 09:35 Calm 16.09 Clear CLR 27 20     62%   29 1018.3        
May 14 05:55 Calm 11.27 Clear CLR 16 16     99%     1017.6        
May 14 01:15 Calm 16.09 Clear CLR 19 18     96%     1018        
May 14 00:15 Calm 16.09 Clear CLR 19 18     94%     1018.3        
May 13 11:15 NNW 13 16.09 Clear CLR 30 16     42%   30 1021.3        
May 12 15:35 WNW 11 16.09 Clear CLR 32 14     33%   31 1019.3        
May 12 07:55 Calm 16.09 Clear CLR 20 17     84%     1022.4        
Notice The following observation data may not be complete
May 12 06:35   16.09 Clear CLR          %              
May 11 23:55 Calm 16.09 Clear CLR 19 17     89%     1019.7        
May 11 17:15 S 11 16.09 Clear CLR 31 15     37%   31 1018        
Notice The following observation data may not be complete
Jun 12 07:15   16.09 Clear CLR          %              
Notice The following observation data may not be complete
Jun 12 06:35   16.09 Clear CLR          %              
Jun 11 15:15 SSE 15 16.09 Clear   31 21     55%   34 1020        
Notice The following observation data may not be complete
Jun 11 12:35   16.09 Mostly Cloudy SCT034 SCT046 BKN070          %              
Jun 11 12:15 SE 15 16.09 Mostly Cloudy SCT029 SCT050 BKN070 29 22     64%   32 1021.3        
Jun 11 10:15 SE 11 16.09 Partly Cloudy SCT021 28 22     73%   30 1022        
Notice The following observation data may not be complete
Jun 11 04:35   16.09 Clear CLR          %              
Jun 11 03:15 Calm 16.09 Mostly Cloudy BKN070 18 17     92%     1019.3        
Jun 10 17:55 SSE 11 16.09 Clear   29 17     49%   30 1017.6        
Notice The following observation data may not be complete
Jun 10 15:35   16.09 Partly Cloudy SCT075 SCT095          %              
Jun 09 20:35 Calm 16.09 Partly Cloudy SCT065 23 18     70%   24 1014.6        
Jun 09 15:15 Calm 16.09 Mostly Cloudy BKN065 28 15     44%   28 1014.6        
Jun 09 11:35 SSW 8 16.09 Mostly Cloudy BKN050 27 15     49%   27 1015.9        
Jun 09 09:55 Calm 16.09 Clear CLR 25 17     61%   25 1015.9        
Jun 09 04:15 Calm 16.09 Clear CLR 16 15     94%     1013.6        
Jun 09 01:15 Calm 16.09 Clear CLR 17 16     94%     1013.6        
Notice The following observation data may not be complete
Jun 08 21:15   16.09 Mostly Cloudy BKN060          %              
Notice The following observation data may not be complete
Jun 08 16:15   16.09 Partly Cloudy SCT055          %              
Jun 08 14:15 W 11 16.09 Clear CLR 27 15     48%   27 1012.5        
Jun 08 13:15 WSW 8 16.09 Partly Cloudy SCT040 SCT046 26 15     51%   26 1013.2        
Jun 08 08:15 Calm 16.09 Clear   19 16     81%     1013.9        
Jun 08 07:55 Calm 16.09 Clear CLR 18 16     88%     1013.9        
Jun 08 07:15 Calm 16.09 Mostly Cloudy BKN048 17 15     88%     1013.6        
Jun 07 23:15 Calm 16.09 Clear CLR 18 14     77%     1012.5        
Jun 07 22:35 Calm 16.09 Clear CLR 18 15     82%     1012.2        
Jun 07 19:35 N 9 16.09 Clear CLR 25 13     47%   25 1010.8        
Jun 07 19:15 N 8 16.09 Clear CLR 26 13     44%   26 1010.5        
Notice The following observation data may not be complete
Jun 07 15:15   16.09 Partly Cloudy SCT043 SCT050          %              
Jun 07 10:15 NE 13 16.09 Clear CLR 23 17     67%   24 1010.5        
Jun 07 09:55 NE 21 16.09 Clear CLR 23 17     67%   23 1010.5        
Jun 06 12:35 NE 15 16.09 Partly Cloudy SCT014 SCT038 24 22     86%   25 1009.5        
Jun 06 04:35 Calm 11.27 Partly Cloudy SCT036 SCT065 SCT110 21 21     98%     1009.2        
Notice The following observation data may not be complete
Jun 05 22:15   16.09 Clear CLR          %              
Jun 05 17:15 SSE 11 16.09 Thunderstorms and Rain OVC095 23 22     96%   24 1009.8   0